EA1QW Weather Reports


Display with metric or nautical units.
time (UTC)temp
F
wind
direction
speed
MPH
gust
MPH
rain 1hr
in
rain 24hr
in
rain mn
in
humidity
%
barometer
mb
20171023004519 49 306 0.0 0.0 0.00 0.00 0.00 96 1028.0
20171023004017 48 306 0.0 0.0 0.00 0.00 0.00 95 1027.9
20171023003519 48 306 0.0 0.0 0.00 0.00 0.00 95 1027.9
20171023003017 49 306 0.0 0.0 0.00 0.00 0.00 95 1027.9
20171023002518 49 306 0.0 0.0 0.00 0.00 0.00 95 1027.7
20171023002016 49 306 0.0 0.0 0.00 0.00 0.00 95 1027.7
20171023001521 49 306 0.0 0.0 0.00 0.00 0.00 95 1027.7
20171023001025 49 306 0.0 0.0 0.00 0.00 0.00 95 1028.0
20171023000526 49 306 0.0 0.0 0.00 0.00 0.00 95 1028.0
20171023000025 49 306 0.0 0.0 0.00 0.00 0.00 95 1028.0
20171022235529 49 306 0.0 0.0 0.00 0.00 0.00 95 1028.0
20171022235028 49 306 0.0 0.0 0.00 0.00 0.00 95 1028.0
20171022234529 49 306 0.0 0.0 0.00 0.00 0.00 95 1028.0
20171022234031 49 306 0.0 0.0 0.00 0.00 0.00 95 1028.1
20171022233512 50 306 0.0 0.0 0.00 0.00 0.00 95 1028.1
20171022233016 50 306 0.0 0.0 0.00 0.00 0.00 95 1028.0
20171022232517 50 306 0.0 3.0 0.00 0.00 0.00 95 1028.0
20171022232014 50 306 0.0 3.0 0.00 0.00 0.00 95 1028.0
20171022231515 50 306 2.0 3.0 0.00 0.00 0.00 95 1028.6
20171022231016 50 306 1.0 2.0 0.00 0.00 0.00 94 1028.6
20171022230514 50 306 0.0 0.0 0.00 0.00 0.00 94 1028.6
20171022230032 50 306 0.0 0.0 0.00 0.00 0.00 94 1028.6
20171022225532 50 306 0.0 2.0 0.00 0.00 0.00 94 1028.6
20171022225014 50 306 1.0 2.0 0.00 0.00 0.00 94 1028.6
20171022224515 50 306 0.0 0.0 0.00 0.00 0.00 93 1028.1
20171022224023 50 306 0.0 0.0 0.00 0.00 0.00 93 1028.1
20171022223531 50 306 0.0 0.0 0.00 0.00 0.00 93 1028.1
20171022223015 50 306 0.0 0.0 0.00 0.00 0.00 93 1028.5
20171022222519 50 306 0.0 0.0 0.00 0.00 0.00 92 1028.5
20171022222023 50 306 0.0 0.0 0.00 0.00 0.00 92 1028.5
20171022221525 50 306 0.0 0.0 0.00 0.00 0.00 92 1028.5
20171022221025 50 306 0.0 0.0 0.00 0.00 0.00 92 1028.6
20171022220516 51 306 0.0 0.0 0.00 0.00 0.00 93 1028.6
20171022220030 51 306 0.0 0.0 0.00 0.00 0.00 93 1028.6
20171022215512 51 306 0.0 0.0 0.00 0.00 0.00 93 1028.6
20171022215014 51 306 0.0 0.0 0.00 0.00 0.00 93 1028.6
20171022214515 51 306 0.0 2.0 0.00 0.00 0.00 93 1028.8
20171022214013 51 306 0.0 2.0 0.00 0.00 0.00 93 1028.8
20171022213514 51 306 1.0 2.0 0.00 0.00 0.00 93 1028.8
20171022213025 51 306 0.0 0.0 0.00 0.00 0.00 92 1028.8
20171022212527 51 306 0.0 0.0 0.00 0.00 0.00 91 1029.0
20171022212025 51 306 0.0 0.0 0.00 0.00 0.00 91 1029.0
20171022211522 51 306 0.0 0.0 0.00 0.00 0.00 91 1029.0
20171022211015 52 306 0.0 0.0 0.00 0.00 0.00 91 1029.1
20171022210514 52 306 0.0 0.0 0.00 0.00 0.00 90 1029.1
20171022210028 52 306 0.0 0.0 0.00 0.00 0.00 90 1029.1
20171022205524 52 306 0.0 0.0 0.00 0.00 0.00 90 1029.1
20171022205016 52 306 0.0 0.0 0.00 0.00 0.00 90 1029.1
20171022204514 52 306 0.0 0.0 0.00 0.00 0.00 90 1028.8
20171022204028 52 306 0.0 0.0 0.00 0.00 0.00 90 1028.8
20171022203529 52 306 0.0 0.0 0.00 0.00 0.00 90 1028.8
20171022203022 53 306 0.0 0.0 0.00 0.00 0.00 90 1028.8
20171022202516 53 306 0.0 0.0 0.00 0.00 0.00 91 1028.9
20171022202029 53 306 0.0 0.0 0.00 0.00 0.00 90 1028.9
20171022201513 53 306 0.0 1.0 0.00 0.00 0.00 90 1029.1
20171022201023 53 306 0.0 1.0 0.00 0.00 0.00 90 1029.1
20171022200517 53 306 0.0 0.0 0.00 0.00 0.00 89 1029.1
20171022200024 53 306 0.0 0.0 0.00 0.16 0.00 88 1029.1
20171022195518 54 306 0.0 0.0 0.00 0.16 0.00 88 1029.1
20171022195017 54 306 0.0 0.0 0.00 0.16 0.00 88 1029.1
20171022194515 54 306 0.0 0.0 0.00 0.16 0.00 88 1029.1
20171022194016 54 306 0.0 0.0 0.00 0.16 0.00 88 1029.1
20171022193519 54 306 0.0 0.0 0.00 0.16 0.00 88 1029.1
20171022193031 55 306 0.0 0.0 0.00 0.16 0.00 87 1029.1
20171022192529 55 306 0.0 0.0 0.00 0.16 0.00 87 1029.1
20171022192022 55 306 0.0 0.0 0.00 0.16 0.00 87 1029.1
20171022191520 55 306 0.0 0.0 0.00 0.16 0.00 86 1029.1
20171022191013 55 306 0.0 0.0 0.00 0.16 0.00 85 1028.9
20171022190530 56 306 0.0 0.0 0.00 0.16 0.00 84 1028.9
20171022190017 56 306 0.0 0.0 0.00 0.16 0.00 84 1028.9
20171022185534 56 306 0.0 0.0 0.00 0.16 0.00 83 1029.0
20171022185024 56 306 0.0 0.0 0.00 0.16 0.00 83 1029.0
20171022184525 56 306 0.0 0.0 0.00 0.16 0.00 83 1029.0
20171022184026 57 306 0.0 0.0 0.00 0.16 0.00 84 1028.6
20171022183523 57 306 0.0 0.0 0.00 0.16 0.00 83 1028.6
20171022183019 57 306 0.0 0.0 0.00 0.16 0.00 83 1028.6
20171022182517 57 306 0.0 0.0 0.00 0.16 0.00 82 1028.6
20171022182033 58 306 0.0 0.0 0.00 0.16 0.00 82 1028.6
20171022181530 58 306 0.0 0.0 0.00 0.16 0.00 82 1028.6
20171022181026 58 306 0.0 2.0 0.00 0.16 0.00 82 1028.5
20171022180522 58 306 1.0 2.0 0.00 0.16 0.00 81 1028.5
20171022180031 59 306 0.0 0.0 0.00 0.16 0.00 80 1028.5
20171022175528 59 306 0.0 0.0 0.00 0.16 0.00 79 1028.6
20171022175021 59 306 0.0 0.0 0.00 0.16 0.00 79 1028.6
20171022174522 60 306 0.0 0.0 0.00 0.16 0.00 78 1028.6
20171022174017 60 306 0.0 0.0 0.00 0.16 0.00 77 1028.6
20171022173533 60 306 0.0 0.0 0.00 0.16 0.00 77 1028.6
20171022173025 61 306 0.0 0.0 0.00 0.16 0.00 76 1028.6
20171022172523 61 306 0.0 0.0 0.00 0.16 0.00 75 1028.6
20171022172032 61 306 0.0 0.0 0.00 0.16 0.00 75 1028.6
20171022171511 61 306 0.0 0.0 0.00 0.16 0.00 75 1028.4
20171022171031 61 306 0.0 0.0 0.00 0.16 0.00 75 1028.4
20171022170532 61 306 0.0 0.0 0.00 0.16 0.00 75 1028.4
20171022170029 61 306 0.0 2.0 0.00 0.16 0.00 75 1028.4
20171022165523 61 306 0.0 4.0 0.00 0.16 0.00 75 1028.5
20171022165019 61 306 1.0 4.0 0.00 0.16 0.00 75 1028.5
20171022164522 61 306 0.0 3.0 0.00 0.16 0.00 75 1028.5
20171022164018 61 306 0.0 3.0 0.00 0.16 0.00 76 1028.5
20171022163516 61 306 0.0 6.0 0.00 0.16 0.00 75 1028.5
20171022163029 61 302 1.0 7.0 0.00 0.16 0.00 75 1028.5
20171022162529 61 271 4.0 7.0 0.00 0.16 0.00 75 1028.6
20171022162027 61 337 3.0 7.0 0.00 0.16 0.00 76 1028.6
20171022161528 62 284 3.0 7.0 0.00 0.16 0.00 75 1028.6
20171022161014 62 299 2.0 8.0 0.00 0.16 0.00 74 1028.6
20171022160516 62 288 5.0 8.0 0.00 0.16 0.00 74 1028.6
20171022160026 62 304 3.0 7.0 0.00 0.16 0.00 74 1028.6
20171022155525 62 322 5.0 7.0 0.00 0.16 0.00 74 1028.6
20171022155018 62 294 3.0 7.0 0.00 0.16 0.00 74 1028.6
20171022154516 63 317 3.0 6.0 0.00 0.16 0.00 73 1028.6
20171022154030 63 265 2.0 6.0 0.00 0.16 0.00 70 1028.6
20171022153530 63 304 3.0 8.0 0.00 0.16 0.00 68 1028.6
20171022153021 62 297 3.0 8.0 0.00 0.16 0.00 69 1028.6
20171022152525 62 324 3.0 8.0 0.00 0.16 0.00 67 1028.6
20171022152022 63 288 4.0 9.0 0.00 0.16 0.00 66 1028.6
20171022151526 63 11 3.0 9.0 0.00 0.16 0.00 66 1028.6
20171022151018 63 291 5.0 9.0 0.00 0.16 0.00 66 1028.6
20171022150523 63 300 2.0 8.0 0.00 0.16 0.00 68 1028.6
20171022150031 63 321 3.0 8.0 0.00 0.16 0.00 69 1028.6
20171022145517 63 323 4.0 10.0 0.00 0.16 0.00 68 1028.7
20171022145014 63 254 6.0 10.0 0.00 0.16 0.00 67 1028.7
20171022144514 63 315 6.0 9.0 0.00 0.16 0.00 66 1028.9
20171022144032 64 281 5.0 9.0 0.00 0.16 0.00 66 1028.9
20171022143517 64 267 5.0 10.0 0.00 0.16 0.00 66 1028.9
20171022143015 64 315 4.0 11.0 0.00 0.16 0.00 67 1028.9
20171022142515 64 299 5.0 11.0 0.00 0.16 0.00 67 1028.9
20171022142032 64 301 5.0 9.0 0.00 0.16 0.00 67 1028.9
20171022141528 64 308 2.0 10.0 0.00 0.16 0.00 67 1028.9
20171022141032 64 284 6.0 10.0 0.00 0.16 0.00 66 1029.0
20171022140514 64 330 4.0 10.0 0.00 0.16 0.00 66 1029.0
20171022140031 63 267 6.0 10.0 0.00 0.16 0.00 65 1029.0
20171022135515 64 279 3.0 11.0 0.00 0.16 0.00 66 1029.1
20171022135032 64 302 5.0 11.0 0.00 0.16 0.00 65 1029.1
20171022134515 63 305 7.0 11.0 0.00 0.16 0.00 64 1029.1
20171022134030 64 273 4.0 10.0 0.00 0.16 0.00 62 1029.1
20171022133510 64 307 6.0 10.0 0.00 0.16 0.00 65 1029.1
20171022133032 64 319 4.0 10.0 0.00 0.16 0.00 65 1029.1
20171022132531 64 261 6.0 10.0 0.00 0.16 0.00 64 1029.1
20171022132027 64 288 6.0 10.0 0.00 0.16 0.00 63 1029.1
20171022131526 64 307 5.0 11.0 0.00 0.16 0.00 65 1029.1
20171022131020 64 302 7.0 11.0 0.00 0.16 0.00 62 1029.1
20171022130514 64 298 5.0 8.0 0.00 0.16 0.00 61 1029.1
20171022130027 65 302 4.0 8.0 0.00 0.16 0.00 62 1029.1
20171022125520 64 302 3.0 7.0 0.00 0.16 0.00 62 1029.1
20171022125017 65 238 3.0 8.0 0.00 0.16 0.00 59 1029.1
20171022124521 64 279 3.0 8.0 0.00 0.16 0.00 60 1029.1
20171022124015 64 238 3.0 7.0 0.00 0.16 0.00 57 1029.2
20171022123530 64 303 3.0 7.0 0.00 0.16 0.00 60 1029.2
20171022123021 64 312 4.0 8.0 0.00 0.16 0.00 61 1029.2
20171022122520 64 279 1.0 7.0 0.00 0.16 0.00 62 1029.5
20171022122019 64 250 3.0 8.0 0.00 0.16 0.00 61 1029.5
20171022121515 64 209 2.0 10.0 0.00 0.16 0.00 60 1029.6
20171022121013 64 246 5.0 10.0 0.00 0.16 0.00 61 1029.6
20171022120526 65 253 1.0 8.0 0.00 0.16 0.00 60 1029.6
20171022120018 64 211 3.0 8.0 0.00 0.16 0.00 61 1029.8
20171022115533 63 219 3.0 8.0 0.00 0.16 0.00 60 1029.8
20171022115027 64 186 2.0 8.0 0.00 0.16 0.00 60 1029.8
20171022114524 63 254 3.0 7.0 0.00 0.16 0.00 61 1029.8
20171022114014 63 276 4.0 7.0 0.00 0.16 0.00 60 1030.1
20171022113510 63 225 5.0 7.0 0.00 0.16 0.00 61 1030.1
20171022113031 62 247 5.0 8.0 0.00 0.16 0.00 62 1030.1
20171022112532 62 229 2.0 7.0 0.00 0.16 0.00 63 1030.2
20171022112009 62 194 4.0 9.0 0.00 0.16 0.00 63 1030.2
20171022111514 62 232 2.0 9.0 0.00 0.16 0.00 63 1030.3
20171022111031 62 203 2.0 12.0 0.00 0.16 0.00 64 1030.3
20171022110532 62 213 5.0 12.0 0.00 0.16 0.00 62 1030.3
20171022110030 63 249 3.0 8.0 0.00 0.16 0.00 61 1030.3
20171022105531 63 238 3.0 7.0 0.00 0.16 0.00 60 1030.2
20171022105027 63 171 2.0 9.0 0.00 0.16 0.00 62 1030.2
20171022104514 63 205 5.0 9.0 0.00 0.16 0.00 62 1030.3
20171022104021 62 252 2.0 8.0 0.00 0.16 0.00 64 1030.3
20171022103534 62 211 4.0 7.0 0.00 0.16 0.00 63 1030.3
20171022103028 61 217 3.0 7.0 0.00 0.16 0.00 63 1030.3
20171022102521 61 169 3.0 7.0 0.00 0.16 0.00 65 1030.4
20171022102013 61 196 2.0 6.0 0.00 0.16 0.00 66 1030.4
20171022101532 60 190 1.0 6.0 0.00 0.16 0.00 66 1030.4
20171022101021 60 200 3.0 6.0 0.00 0.16 0.00 67 1030.6
20171022100520 60 205 4.0 7.0 0.00 0.16 0.00 68 1030.6
20171022100019 59 212 2.0 7.0 0.00 0.16 0.00 69 1030.6
20171022095519 59 214 0.0 6.0 0.00 0.16 0.00 70 1030.7
20171022095027 58 214 1.0 6.0 0.00 0.16 0.00 70 1030.7
20171022094528 58 214 1.0 6.0 0.00 0.16 0.00 71 1030.7
20171022094020 58 214 0.0 6.0 0.00 0.16 0.00 70 1030.6
20171022093533 58 214 2.0 5.0 0.00 0.16 0.00 70 1030.6
20171022093024 58 214 1.0 5.0 0.00 0.16 0.00 70 1030.6
20171022092516 58 214 1.0 5.0 0.00 0.16 0.00 70 1030.7
20171022092021 58 215 3.0 6.0 0.00 0.16 0.00 69 1030.7
20171022091519 58 214 1.0 6.0 0.00 0.16 0.00 69 1030.7
20171022091022 58 211 1.0 5.0 0.00 0.16 0.00 69 1030.4
20171022090518 58 213 3.0 5.0 0.00 0.16 0.00 69 1030.4
20171022090029 58 213 2.0 5.0 0.00 0.16 0.00 70 1030.4
20171022085521 58 213 1.0 4.0 0.00 0.16 0.00 70 1030.2
20171022085020 58 213 2.0 6.0 0.00 0.16 0.00 70 1030.2
20171022084534 57 213 2.0 6.0 0.00 0.16 0.00 70 1030.2
20171022084020 57 213 1.0 7.0 0.00 0.16 0.00 71 1030.2
20171022083516 57 213 4.0 7.0 0.00 0.16 0.00 71 1030.2
20171022083024 57 209 3.0 7.0 0.00 0.16 0.00 71 1030.2
20171022082518 57 213 1.0 7.0 0.00 0.16 0.00 72 1030.2
20171022082032 57 225 2.0 5.0 0.00 0.16 0.00 72 1030.2
20171022081527 57 225 3.0 6.0 0.00 0.16 0.00 72 1030.2
20171022081033 57 226 1.0 6.0 0.00 0.16 0.00 73 1030.1
20171022080530 57 234 1.0 4.0 0.00 0.16 0.00 73 1030.1
20171022080024 56 234 1.0 4.0 0.00 0.16 0.00 73 1030.1
20171022075520 56 234 2.0 4.0 0.00 0.16 0.00 74 1030.0
20171022075031 56 234 1.0 4.0 0.00 0.16 0.00 74 1030.0
20171022074529 56 234 2.0 4.0 0.00 0.16 0.00 74 1030.0
20171022074020 56 234 1.0 4.0 0.00 0.16 0.00 75 1029.8
20171022073518 56 236 1.0 5.0 0.00 0.16 0.00 75 1029.8
20171022073023 55 236 1.0 5.0 0.00 0.16 0.00 76 1029.8
20171022072519 55 237 0.0 4.0 0.00 0.16 0.00 76 1029.7
20171022072023 55 237 1.0 4.0 0.00 0.16 0.00 77 1029.7
20171022071519 55 237 0.0 1.0 0.00 0.16 0.00 77 1029.6
20171022071029 55 237 0.0 0.0 0.00 0.16 0.00 77 1029.6
20171022070527 55 237 0.0 0.0 0.00 0.16 0.00 77 1029.6
20171022070017 55 237 0.0 0.0 0.00 0.16 0.00 77 1029.6
20171022065530 55 237 0.0 0.0 0.00 0.16 0.00 77 1029.6
20171022065026 55 237 0.0 1.0 0.00 0.16 0.00 76 1029.6
20171022064522 55 237 0.0 3.0 0.00 0.16 0.00 77 1029.6
20171022064017 55 237 0.0 3.0 0.00 0.16 0.00 77 1029.6
20171022063530 55 237 0.0 1.0 0.00 0.16 0.00 77 1029.6
20171022063017 55 237 0.0 2.0 0.00 0.16 0.00 77 1029.6
20171022062518 56 237 0.0 2.0 0.00 0.16 0.00 77 1029.6
20171022062028 56 237 0.0 0.0 0.00 0.16 0.00 77 1029.6
20171022061526 56 237 0.0 0.0 0.00 0.16 0.00 77 1029.6
20171022061021 56 237 0.0 0.0 0.00 0.16 0.00 77 1029.6
20171022060520 56 237 0.0 1.0 0.00 0.16 0.00 77 1029.6
20171022060014 56 237 0.0 1.0 0.00 0.16 0.00 77 1029.6
20171022055532 56 237 0.0 2.0 0.00 0.16 0.00 77 1029.6
20171022055032 56 237 0.0 3.0 0.00 0.16 0.00 77 1029.6
20171022054524 56 237 0.0 4.0 0.00 0.16 0.00 77 1029.6
20171022054024 56 237 1.0 4.0 0.00 0.16 0.00 77 1029.7
20171022053526 56 238 0.0 0.0 0.00 0.16 0.00 77 1029.7
20171022053023 56 238 0.0 4.0 0.00 0.16 0.00 77 1029.7
20171022052526 56 238 1.0 4.0 0.00 0.16 0.00 77 1029.9
20171022052014 56 246 0.0 1.0 0.00 0.16 0.00 77 1029.9
20171022051518 56 246 0.0 3.0 0.00 0.16 0.00 77 1029.9
20171022051018 56 246 1.0 3.0 0.00 0.16 0.00 76 1029.6
20171022050516 56 246 0.0 2.0 0.00 0.16 0.00 77 1029.6
20171022050017 56 246 0.0 3.0 0.00 0.16 0.00 77 1029.6
20171022045520 56 246 1.0 4.0 0.00 0.16 0.00 76 1029.6
20171022045023 56 246 0.0 5.0 0.00 0.16 0.00 76 1029.6
20171022044527 56 246 0.0 5.0 0.00 0.16 0.00 76 1029.6
20171022044026 56 250 1.0 5.0 0.00 0.16 0.00 76 1029.5
20171022043527 56 260 1.0 6.0 0.00 0.16 0.00 76 1029.5
20171022043026 56 241 3.0 6.0 0.00 0.16 0.00 76 1029.5
20171022042524 56 229 2.0 6.0 0.00 0.16 0.00 76 1029.2
20171022042022 56 227 2.0 4.0 0.00 0.16 0.00 77 1029.2
20171022041523 56 227 1.0 4.0 0.00 0.16 0.00 77 1029.2
20171022041023 56 227 1.0 4.0 0.00 0.16 0.00 77 1029.1
20171022040524 56 227 1.0 5.0 0.00 0.16 0.00 77 1029.1
20171022040024 56 227 2.0 5.0 0.00 0.16 0.00 78 1029.1
20171022035525 56 229 1.0 4.0 0.00 0.16 0.00 78 1028.9
20171022035024 56 229 1.0 6.0 0.00 0.16 0.00 78 1028.9
20171022034522 56 229 1.0 6.0 0.00 0.16 0.00 78 1028.9
20171022034027 56 231 0.0 3.0 0.00 0.16 0.00 79 1028.6
20171022033527 56 231 0.0 2.0 0.00 0.16 0.00 78 1028.6
20171022033019 56 231 0.0 4.0 0.00 0.16 0.00 78 1028.6
20171022032520 56 231 0.0 5.0 0.00 0.16 0.00 78 1028.6
20171022032018 56 231 2.0 5.0 0.00 0.16 0.00 78 1028.6
20171022031516 56 236 1.0 3.0 0.00 0.16 0.00 79 1028.6
20171022031018 56 236 0.0 4.0 0.00 0.16 0.00 79 1028.8
20171022030520 56 236 0.0 4.0 0.00 0.16 0.00 79 1028.8
20171022030020 56 236 0.0 1.0 0.00 0.16 0.00 79 1028.8
20171022025524 56 236 0.0 2.0 0.00 0.16 0.00 80 1029.1
20171022025026 56 236 0.0 2.0 0.00 0.16 0.00 80 1029.1
20171022024527 56 236 0.0 4.0 0.00 0.16 0.00 80 1029.1
20171022024024 56 237 0.0 3.0 0.00 0.16 0.00 80 1029.0
20171022023522 56 237 0.0 3.0 0.00 0.16 0.00 80 1029.0
20171022023023 56 237 0.0 3.0 0.00 0.16 0.00 80 1029.0
20171022022521 56 237 0.0 3.0 0.00 0.16 0.00 81 1029.1
20171022022019 56 237 0.0 4.0 0.00 0.16 0.00 81 1029.1
20171022021520 56 237 1.0 4.0 0.00 0.16 0.00 81 1029.1
20171022021025 56 242 0.0 3.0 0.00 0.16 0.00 81 1029.1
20171022020523 56 242 1.0 3.0 0.00 0.16 0.00 81 1029.1
20171022020021 56 249 0.0 2.0 0.00 0.31 0.00 81 1029.1
20171022015519 56 249 0.0 4.0 0.00 0.31 0.00 81 1029.2
20171022015021 56 249 0.0 5.0 0.00 0.31 0.00 81 1029.2
20171022014519 56 248 1.0 7.0 0.00 0.31 0.00 81 1029.2
20171022014018 56 248 2.0 7.0 0.00 0.31 0.00 82 1029.2
20171022013518 55 259 1.0 4.0 0.00 0.31 0.00 83 1029.2
20171022013020 55 259 1.0 3.0 0.00 0.31 0.00 84 1029.2
20171022012521 55 259 1.0 3.0 0.00 0.31 0.00 85 1029.1
20171022012016 55 259 0.0 4.0 0.00 0.31 0.00 87 1029.1
20171022011513 55 259 0.0 4.0 0.00 0.31 0.00 88 1029.1
20171022011029 55 261 1.0 4.0 0.00 0.31 0.00 89 1029.1
20171022010530 55 176 0.0 2.0 0.00 0.31 0.00 90 1029.1
20171022010028 55 176 0.0 0.0 0.00 0.31 0.00 90 1029.1
20171022005524 55 176 0.0 0.0 0.00 0.31 0.00 90 1028.9
20171022005029 55 176 0.0 0.0 0.00 0.31 0.00 90 1028.9